Dallas Redbird, TX

3:44 AM CST on November 22, 2017 (GMT -0600)
Redbird

Weather History for KRBD - January, 2014

Change the Weather History Date:

Saturday, January 4, 2014

  Actual Average Record
Temperature  
Mean Temperature 54 °F -  
Max Temperature 70 °F 54 °F 77 °F (1997)
Min Temperature 39 °F 36 °F 16 °F (1999)
Degree Days  
Heating Degree Days 10    
Growing Degree Days 4 (Base 50)    
Moisture  
Dew Point 42 °F    
Average Humidity 66    
Maximum Humidity 86    
Minimum Humidity 45    
Precipitation  
Precipitation 0.00 in - - ()
Sea Level Pressure  
Sea Level Pressure 29.86 in    
Wind  
Wind Speed 11 mph (South)    
Max Wind Speed 16 mph    
Max Gust Speed 29 mph    
Visibility 10 miles    
Events      
Averages and records for this station are not official NWS values.
T = Trace of Precipitation, MM = Missing Value Source: NWS Daily Summary

Daily Weather History Graph

Daily Weather History Graph

Search for Another Location

Airport or City:

Trip Planner

Search our weather history database for the weather conditions in past years. The results will help you decide how hot, cold, wet, or windy it might be!

Date:

Astronomy

Jan. 04, 2014 Rise Set
Actual Time 7:30 AM CST 5:34 PM CST
Civil Twilight 7:03 AM CST 6:02 PM CST
Nautical Twilight 6:32 AM CST 6:32 PM CST
Astronomical Twilight 6:02 AM CST 7:02 PM CST
Moon 9:49 AM CST (1/4) 9:41 PM CST (1/4)
Length of Visible Light 10h 58m
Length of Day
10h 04m
Waxing Crescent, 15% of the Moon is Illuminated
Jan 4
Waxing Crescent
Jan 7
First Quarter
Jan 15
Full
Jan 23
Last Quarter
Jan 30
New

Hourly Weather History & Observations

Time (CST) Temp. Windchill Dew Point Humidity Pressure Visibility Wind Dir Wind Speed Gust Speed Precip Events Conditions
12:53 AM 42.1 °F 36.1 °F 25.0 °F 51% 30.02 in 10.0 mi South 10.4 mph 26.5 mph N/A   Clear
1:53 AM 42.1 °F 35.7 °F 28.0 °F 58% 30.01 in 10.0 mi South 11.5 mph 23.0 mph N/A   Clear
2:53 AM 41.0 °F 34.3 °F 30.0 °F 65% 30.00 in 10.0 mi South 11.5 mph 19.6 mph N/A   Clear
3:53 AM 41.0 °F 33.5 °F 33.1 °F 73% 29.98 in 10.0 mi South 13.8 mph 23.0 mph N/A   Clear
4:53 AM 39.9 °F 32.5 °F 34.0 °F 79% 29.97 in 10.0 mi South 12.7 mph 19.6 mph N/A   Clear
5:53 AM 39.9 °F 31.8 °F 36.0 °F 86% 29.96 in 10.0 mi South 15.0 mph 25.3 mph N/A   Clear
6:32 AM 41.0 °F 32.8 °F 35.6 °F 81% 29.94 in 10.0 mi South 16.1 mph 26.5 mph N/A   Partly Cloudy
6:53 AM 41.0 °F 34.3 °F 36.0 °F 82% 29.94 in 10.0 mi South 11.5 mph 21.9 mph N/A   Partly Cloudy
7:53 AM 42.1 °F 35.7 °F 37.9 °F 85% 29.92 in 10.0 mi South 11.5 mph 23.0 mph N/A   Clear
8:53 AM 46.0 °F 39.9 °F 39.9 °F 79% 29.93 in 10.0 mi South 13.8 mph 26.5 mph N/A   Clear
9:53 AM 48.9 °F - 42.1 °F 77% 29.93 in 10.0 mi South 10.4 mph 20.7 mph N/A   Mostly Cloudy
10:15 AM 51.8 °F - 42.8 °F 71% 29.92 in 10.0 mi South 11.5 mph 21.9 mph N/A   Mostly Cloudy
10:53 AM 55.0 °F - 45.0 °F 69% 29.90 in 10.0 mi South 12.7 mph 20.7 mph N/A   Scattered Clouds
11:53 AM 60.1 °F - 46.0 °F 60% 29.85 in 10.0 mi South 13.8 mph 28.8 mph N/A   Clear
12:53 PM 64.0 °F - 46.9 °F 54% 29.80 in 10.0 mi SSW 10.4 mph 28.8 mph N/A   Clear
1:53 PM 66.9 °F - 48.0 °F 51% 29.75 in 10.0 mi SSW 8.1 mph 26.5 mph N/A   Clear
2:53 PM 69.1 °F - 46.9 °F 45% 29.75 in 10.0 mi SSW 10.4 mph 25.3 mph N/A   Clear
3:53 PM 70.0 °F - 48.0 °F 46% 29.73 in 10.0 mi South 10.4 mph 24.2 mph N/A   Clear
4:53 PM 68.0 °F - 48.0 °F 49% 29.74 in 10.0 mi South 8.1 mph 17.3 mph N/A   Clear
5:53 PM 64.9 °F - 48.9 °F 56% 29.75 in 10.0 mi South 9.2 mph - N/A   Clear
6:53 PM 63.0 °F - 48.9 °F 60% 29.75 in 10.0 mi South 8.1 mph - N/A   Clear
7:53 PM 64.0 °F - 50.0 °F 60% 29.75 in 10.0 mi South 9.2 mph 20.7 mph N/A   Clear
8:53 PM 64.0 °F - 50.0 °F 60% 29.74 in 10.0 mi South 8.1 mph 18.4 mph N/A   Clear
9:53 PM 62.1 °F - 50.0 °F 65% 29.73 in 10.0 mi South 10.4 mph 18.4 mph N/A   Clear
10:53 PM 60.1 °F - 50.0 °F 69% 29.75 in 10.0 mi SW 6.9 mph - N/A   Clear
11:53 PM 60.1 °F - 51.1 °F 72% 29.75 in 10.0 mi SW 5.8 mph - N/A   Scattered Clouds